N7SXG Weather Reports


time (UTC)temp
F
wind
direction
speed
knots
gust
knots
rain 1hr
in
rain 24hr
in
rain mn
in
humidity
%
barometer
mb
20260509001556 59 360 3.5 8.7 0.00 0.00 0.00 69 1011.0
20260509000105 60 0 0.9 5.2 0.00 0.00 0.00 67 1011.1
20260508234559 60 360 2.6 10.4 0.00 0.00 0.00 64 1011.3
20260508233056 60 0 2.6 8.7 0.00 0.00 0.00 63 1010.9
20260508231558 61 360 2.6 7.0 0.00 0.00 0.00 62 1010.7
20260508230106 61 360 0.9 4.3 0.00 0.00 0.00 64 1010.6
20260508224555 62 0 0.0 2.6 0.00 0.00 0.00 63 1010.9
20260508223055 62 0 0.0 1.7 0.00 0.00 0.00 61 1010.6
20260508221604 63 0 0.0 0.9 0.00 0.00 0.00 59 1010.7
20260508220055 63 360 0.9 3.5 0.00 0.00 0.00 56 1010.7
20260508214608 63 360 1.7 5.2 0.00 0.00 0.00 55 1010.7
20260508213057 63 360 0.9 5.2 0.00 0.00 0.00 54 1010.9
20260508211600 63 360 2.6 7.8 0.00 0.00 0.00 53 1010.9
20260508210055 63 360 2.6 8.7 0.00 0.00 0.00 52 1011.2
20260508204603 64 360 2.6 7.8 0.00 0.00 0.00 52 1011.4
20260508203057 64 360 3.5 9.6 0.00 0.00 0.00 50 1011.4
20260508201602 64 360 5.2 13.9 0.00 0.00 0.00 49 1011.6
20260508200057 65 360 5.2 12.2 0.00 0.00 0.00 48 1011.8
20260508194623 65 360 7.8 19.1 0.00 0.00 0.00 47 1011.8
20260508193106 66 360 8.7 17.4 0.00 0.00 0.00 45 1011.8
20260508191559 67 360 7.0 14.8 0.00 0.00 0.00 46 1012.2
20260508190057 69 360 5.2 13.9 0.00 0.00 0.00 46 1012.4
20260508184600 68 360 6.1 20.0 0.00 0.00 0.00 47 1012.3
20260508183055 67 360 8.7 19.1 0.00 0.00 0.00 46 1012.5
20260508181635 65 360 6.1 14.8 0.00 0.00 0.00 52 1012.7
20260508174603 66 360 3.5 14.8 0.00 0.00 0.00 50 1013.1
20260508173057 68 360 6.1 14.8 0.00 0.00 0.00 48 1013.2
20260508171602 68 360 4.3 15.6 0.00 0.00 0.00 49 1013.4
20260508170056 67 360 6.1 14.8 0.00 0.00 0.00 49 1013.7
20260508164559 66 360 5.2 12.2 0.00 0.00 0.00 52 1014.1
20260508163105 65 360 6.1 12.2 0.00 0.00 0.00 52 1014.2
20260508161605 64 360 6.1 17.4 0.00 0.00 0.00 52 1014.3
20260508160057 64 360 7.0 19.1 0.00 0.00 0.00 50 1014.5
20260508154559 65 360 6.1 17.4 0.00 0.00 0.00 51 1014.6
20260508153057 64 360 7.0 16.5 0.00 0.00 0.00 51 1014.6
20260508151609 63 360 4.3 9.6 0.00 0.00 0.00 55 1014.7
20260508150059 61 360 3.5 16.5 0.00 0.00 0.00 55 1014.7
20260508144555 61 360 7.8 16.5 0.00 0.00 0.00 53 1014.7
20260508143056 61 360 7.0 14.8 0.00 0.00 0.00 52 1014.9
20260508141601 61 360 4.3 13.0 0.00 0.00 0.00 55 1015.0
20260508140054 59 360 6.1 13.9 0.00 0.00 0.00 56 1015.1
20260508134559 56 360 5.2 10.4 0.00 0.00 0.00 60 1015.3
20260508133108 55 360 5.2 11.3 0.00 0.00 0.00 61 1015.4
20260508131556 53 360 1.7 11.3 0.00 0.00 0.00 65 1015.2
20260508130057 52 360 0.9 8.7 0.00 0.00 0.00 65 1015.3
20260508124557 51 0 5.2 10.4 0.00 0.00 0.00 68 1015.2
20260508123105 49 360 0.9 4.3 0.00 0.00 0.00 71 1015.2
20260508121557 48 0 1.7 7.0 0.00 0.00 0.00 71 1015.2
20260508120058 47 360 0.9 5.2 0.00 0.00 0.00 72 1015.1
20260508114556 47 360 1.7 7.0 0.00 0.00 0.00 72 1015.0
20260508113107 46 360 1.7 7.8 0.00 0.00 0.00 73 1014.9
20260508111602 46 0 1.7 5.2 0.00 0.00 0.00 73 1014.7
20260508104557 46 0 1.7 7.0 0.00 0.00 0.00 72 1014.6
20260508103058 45 215 1.7 7.8 0.00 0.00 0.00 72 1014.4
20260508101600 45 360 2.6 7.0 0.00 0.00 0.00 73 1014.4
20260508100058 45 186 1.7 6.1 0.00 0.00 0.00 72 1014.4
20260508094608 45 248 0.9 4.3 0.00 0.00 0.00 72 1014.5
20260508093104 45 204 0.9 5.2 0.00 0.00 0.00 72 1014.6
20260508091556 45 0 1.7 5.2 0.00 0.00 0.00 71 1014.7
20260508090057 45 360 0.9 5.2 0.00 0.00 0.00 70 1014.6
20260508084608 45 0 0.0 4.3 0.00 0.00 0.00 69 1014.7
20260508083103 45 360 0.0 3.5 0.00 0.00 0.00 68 1014.6
20260508081635 46 360 0.9 4.3 0.00 0.00 0.00 67 1014.6
20260508080054 46 360 0.9 5.2 0.00 0.00 0.00 66 1014.7
20260508074555 47 360 0.0 5.2 0.00 0.00 0.00 65 1014.5
20260508073104 47 360 1.7 7.0 0.00 0.00 0.00 65 1014.7
20260508071558 47 360 1.7 7.0 0.00 0.00 0.00 64 1014.8
20260508070106 48 360 2.6 7.8 0.00 0.00 0.00 63 1014.9
20260508064554 48 360 3.5 9.6 0.00 0.00 0.00 62 1015.0
20260508063059 48 360 3.5 7.8 0.00 0.00 0.00 61 1014.9
20260508061557 49 360 3.5 8.7 0.00 0.00 0.00 61 1015.0
20260508060106 49 360 4.3 9.6 0.00 0.00 0.00 61 1015.1
20260508054600 49 360 3.5 9.6 0.00 0.00 0.00 61 1015.1
20260508053058 49 360 3.5 9.6 0.00 0.00 0.00 61 1015.0
20260508051559 49 0 1.7 7.8 0.00 0.00 0.00 61 1015.0
20260508050057 50 360 2.6 7.0 0.00 0.00 0.00 61 1015.3
20260508044604 50 360 1.7 5.2 0.00 0.00 0.00 62 1015.2
20260508043107 50 0 0.0 3.5 0.00 0.00 0.00 62 1015.0
20260508041556 50 360 0.0 5.2 0.00 0.00 0.00 62 1014.9
20260508040101 50 360 0.9 2.6 0.00 0.00 0.00 61 1015.0
20260508034557 50 360 0.0 2.6 0.00 0.00 0.00 60 1015.1
20260508033055 51 360 0.0 4.3 0.00 0.00 0.00 59 1015.0
20260508031556 51 0 0.0 2.6 0.00 0.00 0.00 58 1015.2
20260508024559 52 360 0.9 5.2 0.00 0.00 0.00 56 1015.2
20260508023055 51 360 0.9 5.2 0.00 0.00 0.00 56 1014.8
20260508021553 52 360 0.9 4.3 0.00 0.00 0.00 55 1014.9
20260508020055 52 360 0.0 4.3 0.00 0.00 0.00 55 1014.9
20260508014555 52 360 0.9 4.3 0.00 0.00 0.00 55 1014.8
20260508013057 52 360 0.9 3.5 0.00 0.00 0.00 54 1015.1
20260508011610 53 360 0.0 1.7 0.00 0.00 0.00 53 1015.0
20260508010103 53 0 0.0 2.6 0.00 0.00 0.00 51 1015.0
20260508004607 54 360 0.0 2.6 0.00 0.00 0.00 49 1015.1
20260508003110 55 360 0.9 3.5 0.00 0.00 0.00 48 1015.0